Regional Weather Roundup
Issued by NWS Cleveland, OH

Home | Current Version | Previous Version | Graphics & Text | Print | Product List | Glossary On
Versions: 1 2 3 4 5 6 7 8 9 10 11 12 13 14 15 16 17 18 19 20 21 22 23 24 25 26 27 28 29 30 31 32 33 34 35 36 37 38 39 40 41 42 43 44 45 46 47 48 49 50
000
ASUS41 KCLE 231812
RWRCLE
OHIO REGIONAL WEATHER ROUNDUP
NATIONAL WEATHER SERVICE WILMINGTON, OH
100 PM EST THU FEB 23 2017

NOTE: "FAIR" INDICATES FEW OR NO CLOUDS BELOW 12,000 FEET WITH NO
SIGNIFICANT WEATHER AND/OR OBSTRUCTIONS TO VISIBILITY.

OHZ001>008-015>018-024>027-034-035-043-044-231900-
   NORTHWEST OHIO

CITY           SKY/WX    TMP DP  RH WIND       PRES   REMARKS
DEFIANCE       FAIR      64  47  53 W8        29.75F
FINDLAY        PTSUNNY   64  51  62 SW14      29.75F
TOLEDO EXPRESS FAIR      65  51  60 SW9       29.74S
TOLEDO EXEC    FAIR      66  50  56 W12       29.75R
LIMA           CLOUDY    62  56  80 SW13G22   29.76F
$$

OHZ009>014-019>023-028>033-038-089-231900-
   NORTHEAST OHIO

CITY           SKY/WX    TMP DP  RH WIND       PRES   REMARKS
CLE-HOPKINS    CLOUDY    65  53  65 SW9       29.77F
CLE-LAKEFRONT  CLOUDY    65  53  65 SW14      29.74S
CUY CO. ARPT   CLOUDY    66  55  68 W14       29.75F
LORAIN-ELYRIA  CLOUDY    62  53  72 SW16      29.75F
ASHTABULA      PTSUNNY   65  55  70 SW13      29.75S
AKRON-CANTON   PTSUNNY   64  54  69 SW12      29.77F
WOOSTER        PTSUNNY   64  55  72 W10       29.77F
MANSFIELD      CLOUDY    61  55  81 SW14G20   29.78F
YOUNGSTOWN     CLOUDY    62  54  74 SW12      29.76F
$$

OHZ042-051>053-060>062-070>072-077>081-231900-
  SOUTHWEST OHIO

CITY           SKY/WX    TMP DP  RH WIND       PRES   REMARKS
CINC-COVINGTON CLOUDY    68  57  68 SW8       29.78F
CINC-LUNKEN    PTSUNNY   68  58  70 SW3       29.78F
HAMILTON       PTSUNNY   68  56  65 SW12      29.79F
DAYTON         PTSUNNY   65  55  70 W12       29.78F
WRIGHT-PAT AFB PTSUNNY   67  58  73 SW12      29.77F
DAYTON GENERAL PTSUNNY   66  57  72 SW9       29.77F
WILMINGTON     CLOUDY    64  57  78 SW12      29.80S
$$

OHZ036-037-039>041-045>050-054>059-063>069-073>076-082>088-231900-
  CENTRAL AND SOUTHEAST OHIO

CITY           SKY/WX    TMP DP  RH WIND       PRES   REMARKS
COLUMBUS       CLOUDY    67  57  70 SW14      29.79F
OSU AIRPORT    CLOUDY    66  57  72 SW16      29.78F
BOLTON FIELD   NOT AVBL
RICKENBACK AFB CLOUDY    66  57  73 W12       29.79F
NEWARK         CLOUDY    66  56  70 W12       29.78F
MARION         PTSUNNY   64  54  69 W16       29.78F
LANCASTER      FAIR      69  57  65 SW12      29.80F
ZANESVILLE     CLOUDY    67  55  65 SW10      29.79F
NEW PHILLY     CLOUDY    66  55  67 SW10G17   29.79F
$$



USA.gov is the U.S. government's official web portal to all federal, state and local government web resources and services.